STARLINK-31777, 59619

Orbit data source: Space-Track

STARLINK-31777, 59619 is a payload satellite owned by SpaceX/Seattle (US) in LEO that was launched on Sun, 28 Apr 2024 UTC via an FALCON 9 launch vehicle from the Air Force Eastern Test Range (AFETR). Payload-class satellites include a variety of spacecraft equipped with specific instruments for various scientific and technological missions. These include communications satellites like Starlink; space stations such as the ISS; scientific satellites like the Hubble; Earth observation satellites from companies like Planet Labs, Umbra, and HawkEye 360; GPS; miniature CubeSats for education and research; and military/defense satellites.

Loading next visibility...
Identifier
59619, 2024-080U
Orbit
LEO
Country
Flag of USUS
Related business
Manufacturer
SpaceX/Seattle
Mission
Operational Commercial Communications
Bus & Motor
STARLINK V2M, Unknown motor
Mass
730 kg wet, ~700 kg dry
Launch date (UTC)
2024-04-28 (2 years ago)
Launch vehicle
FALCON 9
Launch site
Air Force Eastern Test Range (AFETR)
Object type
Payload
Rocket body
Debris
Shape & HBR
Box + 2 Pan, 17.7 m
Radar Cross Section
33.884 m², Large (>1 m²)

Expand to show TLE details & history
Last TLE update: 2 days ago

TLE from 2 days ago
0 STARLINK-31777
1 59619U 24080U   26171.05342346  .00002688  00000-0  10713-3 0  9997
2 59619  42.9991 183.6300 0001569 284.1140  75.9537 15.27587654120142
Epoch: 2026-06-20T01:16Z
TLE epoch observation values (Epoch: 2026-06-20T01:16:55.786Z)
Latitude
-0.00005°
Longitude
-103.87607°
Altitude
482.54 km
Speed
7.626 km/s
True Right ascension
12h 14m 31s
True Declination
0° 00' 00"
Sunlit
Object was in daylight at epoch
Visualization orbit readout
Latitude
Unknown
Longitude
Unknown
Altitude
Unknown
Speed
Unknown
Apparent Right ascension
Unknown
Apparent Declination
Unknown
Sunlit
N/A
Visualization observer readout
Local Sidereal Time
21:23:47
Azimuth
Unknown
Elevation
Unknown
Doppler factor
Unknown
Orbital elements
Apogee altitude
486.048 km
Perigee altitude
483.895 km
Semi-major axis
6,863.109 km
Eccentricity
0.00016
Inclination
42.9991°
RAAN
183.63°
Arg. of periapsis
284.114°
True anomaly
75.97114°
Mean anomaly
75.9537°
Eccentric anomaly
75.96242°
Mean motion
3.81735 °/min
Orbital period
94.31 mins
BSTAR
0.00010713
Loading maneuver chart data...
Computing Atmospheric mass density...
Loading historical data...
Loading historical data...
Loading historical data...
Loading historical data...
Loading historical data...
Loading historical data...
Loading historical data...

Documentation

Showing up to 5 results
|